Regional Weather Roundup
Issued by NWS

Home | Current Version | Previous Version | Text Only | Print | Product List | Glossary Off
Versions: 1 2 3 4 5 6 7 8 9 10 11 12 13 14 15 16 17 18 19 20 21 22 23 24 25 26 27 28 29 30 31 32 33 34 35 36 37 38 39 40 41 42 43 44 45 46 47 48 49 50

840
ASUS45 KPSR 101410
RWRAZ

ARIZONA HOURLY REGIONAL WEATHER ROUNDUP
NATIONAL WEATHER SERVICE PHOENIX AZ
700 AM MST WED FEB 10 2016

NOTE: FAIR INDICATES FEW OR NO CLOUDS BELOW 12,000 FEET WITH NO
SIGNIFICANT WEATHER AND/OR OBSTRUCTIONS TO VISIBILITY.

AZZ001>003-036-101500-
NORTHWEST ARIZONA

CITY           SKY/WX    TMP DP  RH WIND       PRES   REMARKS
BULLHEAD CITY  PTCLDY    63  27  25 NE21      30.24R
KINGMAN        PTCLDY    41  21  44 CALM      30.31R
$$

AZZ004>008-015-016-018-101500-
NORTH CENTRAL ARIZONA

CITY           SKY/WX    TMP DP  RH WIND       PRES   REMARKS
GRAND CANYON   PTCLDY    23  16  74 NE3       30.44R
WILLIAMS       PTCLDY    28  10  47 SE7       30.48R WCI  21
PRESCOTT       PTCLDY    31  18  58 S5        30.38R WCI  26
FLAGSTAFF      PTCLDY    20  14  77 CALM      30.45R
PAYSON         CLEAR     39  18  41 CALM      30.39R
PAGE           PTCLDY    31  25  78 CALM      30.44R
$$

AZZ009>014-017-101500-
NORTHEAST ARIZONA

CITY           SKY/WX    TMP DP  RH WIND       PRES   REMARKS
WINSLOW        MOCLDY    23  19  85 E6        30.45R WCI  16
SAINT JOHNS    PTCLDY    23  16  74 SE3       30.43R
WINDOW ROCK    CLEAR     22   0  38 CALM      30.46R
SHOW LOW       PTCLDY    23  16  74 CALM      30.45R
$$

AZZ023-101500-
GREATER PHOENIX AREA

CITY           SKY/WX    TMP DP  RH WIND       PRES   REMARKS
PHOENIX        PTCLDY    57  27  31 E3        30.18S
BUCKEYE        CLEAR     43  27  52 NW5       30.20R
GLENDALE       CLEAR     48  28  46 CALM      30.21S
LUKE AFB       CLEAR     48  27  44 CALM      30.18S
DEER VALLEY    CLEAR     59  19  21 NE7       30.20R
SCOTTSDALE     CLEAR     52  26  36 CALM      30.21S
MESA-FALCON    CLEAR    N/A N/A N/A N13       30.20R
MESA-GATEWAY   CLEAR     46  28  49 E5        30.21S
CHANDLER       CLEAR     48  30  49 NE7       30.20S
$$

AZZ027-028-101500-
SOUTHWEST MARICOPA COUNTY AND PINAL COUNTY

CITY           SKY/WX    TMP DP  RH WIND       PRES   REMARKS
CASA GRANDE    CLEAR     46  25  42 SW3       30.21R
GILA BEND      FAIR      45  28  52 S7        30.16R
$$

AZZ503-504-507>509-101500-
SOUTHEAST ARIZONA

CITY           SKY/WX    TMP DP  RH WIND       PRES   REMARKS
TUCSON         CLEAR     49  20  31 SE9       30.26R
DAVIS-MONTHAN  CLEAR     57  19  22 SE12      30.24R
RYAN FIELD     CLEAR    N/A N/A N/A E10       30.25R
NOGALES        CLEAR     42  17  36 NE8       30.28R
SIERRA VISTA   PTCLDY    44  16  32 NE1       30.34R
DOUGLAS        PTCLDY    37  18  46 N12       30.33R WCI  29
SAFFORD        CLEAR     38  24  57 W7        30.33R WCI  33
$$

AZZ020-021-025-026-031-101500-
SOUTHWEST ARIZONA

CITY           SKY/WX    TMP DP  RH WIND       PRES   REMARKS
YUMA           NOT AVBL
$$

CAZ031-033-041-043-047-048-061-101500-
SOUTHERN CALIFORNIA

CITY           SKY/WX    TMP DP  RH WIND       PRES   REMARKS
DOWNTOWN L.A.  CLEAR     62  29  28 NE3       30.12R
L.A. AIRPORT   PTCLDY    65  29  25 CALM      30.12R
SAN DIEGO      PTCLDY    59  36  42 CALM      30.12S
BURBANK        CLEAR     55  27  34 CALM      30.14R
ONTARIO        PTCLDY    52  29  41 CALM      30.15S
RIVERSIDE      CLEAR     54  29  38 NE5       30.15S
PALM SPRINGS   CLEAR     56  25  30 N7        30.18R
EL CENTRO NAS  PTCLDY    51  24  34 W7        30.17R
IMPERIAL       PTCLDY    50  27  40 CALM      30.15R
BLYTHE         CLEAR     49  23  36 CALM      30.20R
NEEDLES        PTCLDY    57  28  33 W7        30.24R
$$

NVZ020-UTZ003-101500-
SOUTHERN NEVADA-UTAH

CITY           SKY/WX    TMP DP  RH WIND       PRES   REMARKS
LAS VEGAS      PTCLDY    49  27  42 SW3       30.27R
SALT LAKE CITY FOG       28  27  96 CALM      30.48R VSB 1/4
$$

NMZ009-TXZ055-101500-
NEW MEXICO-WEST TEXAS

CITY           SKY/WX    TMP DP  RH WIND       PRES   REMARKS
ALBUQUERQUE    CLOUDY    32  19  58 NW6       30.43R WCI  26
EL PASO        PTCLDY    38  19  46 N8        30.38R WCI  32
$$


........................KEY........................
SKY/WX - SKY CONDITION/WEATHER
TMP    - TEMPERATURE IN FAHRENHEIT
DP     - DEW POINT IN FAHRENHEIT
RH     - RELATIVE HUMIDITY IN PERCENT
WIND   - DIRECTION AND SPEED IN MILES PER HOUR (MPH)
VRB    - VARIABLE WIND DIRECTION
PRES   - MEAN SEA LEVEL PRESSURE IN INCHES OF MERCURY
         F - FALLING PRESSURE   R - RISING PRESSURE
         S - STEADY PRESSURE
VSB    - VISIBILITY IN MILES
HX     - HEAT INDEX IN FAHRENHEIT
WCI    - WIND CHILL INDEX IN FAHRENHEIT
TC     - TEMPERATURE IN CELSIUS WHICH IS ALSO KNOWN AS
         TEMPERATURE IN CENTIGRADE
AFB    - AIR FORCE BASE
         LUKE AFB IS LUKE AIR FORCE BASE
         DAVIS-MONTHAN IS DAVIS-MONTHAN AIR FORCE BASE
NAS    - NAVAL AIR STATION
         EL CENTRO NAS IS EL CENTRO NAVAL AIR STATION
N/A    - NOT AVAILABLE





USA.gov is the U.S. government's official web portal to all federal, state and local government web resources and services.